www.pogodaiklimat.ru

Погода и климат >> Архив погоды >> Россия >> Тверская область >> Тверь


АРХИВ ПОГОДЫ в Твери

Время (UTC), дата Ветер
(напр.,м/с)
 
Видим.   Явления Облачность Т
(С)
Тd
(С)
f
(%)
Тe
(С)
Тes
(С)
Комфортность P
(гПа)
Po
(гПа)
Тmin
(С)
Tmax
(С)
R
(мм)
R24
(мм)
S
(см)
21 11.09 Ю 1 10 км 8/0
[Ac trans Ci fib]
+17.0 +7.5 54 +18 +18 тепло 1026.6 1009.3
00 12.09 З 1 10 км 8/0
[Ac trans Ci fib]
+13.1 +7.6 69 +13 +13 тепло 1026.8 1009.2
03 12.09 ЮЗ 1 10 км 5/0
[Ci fib]
+12.3 +7.5 72 +12 +12 тепло 1027.1 1009.4 +11.1
06 12.09 ЮЗ 1 10 км 3/0
[Ac trans]
+16.2 +8.8 62 +17 +20 тепло 1026.3 1008.9 +10.3
09 12.09 Ю 1 10 км 6/0
[Ac trans]
+21.0 +9.6 48 +24 +29 комфорт 1025.2 1008.1
12 12.09 Ю 2 10 км 5/0
[Ac trans Ci fib]
+24.7 +6.8 32 +25 +29 комфорт 1023.3 1006.4
15 12.09 Ю 1 10 км 6/0
[Ac trans Ci fib]
+23.5 +6.4 33 +24 +24 комфорт 1021.6 1004.7
18 12.09 Ю 1 10 км 6/0
[Ac trans]
+19.8 +8.1 47 +22 +22 комфорт 1021.2 1004.1 +25.6
21 12.09 Ю 1 10 км 6/3 1000 м
[Sc Ac trans]
+17.1 +9.0 59 +18 +18 тепло 1021.3 1004.0
00 13.09 ЮЗ 1 10 км 4/3 1000 м
[Sc Ac trans]
+14.9 +9.2 69 +15 +15 тепло 1020.5 1003.1
03 13.09 штиль 0 10 км 3/0
[Ac trans]
+13.0 +9.4 79 +13 +13 тепло 1019.8 1002.3 +13.0
06 13.09 ЮЗ 1 10 км 9/3 1000 м
[Sc Ac trans Ci fib]
+15.2 +10.5 74 +16 +17 тепло 1019.3 1002.0 +12.9
09 13.09 ЮЗ 3 10 км 9/3 600 м
[Cu hum Ac trans Ci fib]
+17.8 +8.0 53 +18 +20 тепло 1018.3 1001.1
12 13.09 ЮЗ 2 10 км 9/8 1500 м
[Sc Ac trans]
+19.1 +6.1 43 +20 +21 тепло 1016.8 999.7
15 13.09 ЮЗ 2 10 км 8/0
[Ac trans]
+18.0 +5.6 44 +19 +19 тепло 1014.9 997.7
18 13.09 Ю 1 10 км 9/0
[Ac trans]
+15.4 +7.0 57 +16 +16 тепло 1013.0 995.8 +19.7
21 13.09 Ю 1 10 км {ливн. осадки} 9/4 600 м
[Sc Ac und]
+14.3 +8.7 69 +15 +15 тепло 1008.9 991.7
00 14.09 ЮЗ 2 10 км {ливн. осадки} 8/3 600 м
[Sc Ac trans]
+13.3 +10.3 82 +13 +13 тепло 1006.9 989.6
03 14.09 З 2 10 км 9/8 600 м
[Sc Ac und]
+11.8 +7.6 75 +11 +11 тепло 1008.4 991.0 +11.7 2
06 14.09 З 3 10 км 6/6 600 м
[Sc]
+12.2 +6.7 69 +11 +12 тепло 1011.4 994.0 +11.5 2
09 14.09 З 2
{10}
10 км 8/8 1000 м
[Sc]
+13.6 +4.2 53 +13 +15 тепло 1013.3 996.0
12 14.09 З 2
{10}
10 км в посл. час ливневой дождь 8/8 600 м
[Cb cap]
+10.9 +7.0 77 +10 +11 прохладно 1015.0 997.4
15 14.09 З 1 10 км 5/3 1000 м
[Cb cap]
+11.5 +4.6 63 +12 +12 по сезону 1015.3 997.8 2
18 14.09 ЮЗ 1 10 км 3/3 1500 м
[Sc]
+8.5 +3.3 70 +8 +8 по сезону 1015.6 997.9 +15.4 2
21 14.09 ЮЗ 1 10 км 3/0
[Ac trans]
+6.6 +3.6 81 +6 +6 по сезону 1015.8 998.0
00 15.09 ЮЗ 1 10 км 4/0
[Ac trans]
+6.2 +4.1 86 +5 +5 по сезону 1015.6 997.8
03 15.09 штиль 0 10 км 4/0
[Ac trans]
+5.0 +3.5 90 +4 +4 прохладно 1015.7 997.8 +5.0
06 15.09 З 1 10 км 9/9 300 м
[Sc]
+7.0 +4.7 85 +6 +6 по сезону 1015.7 997.9 +5.0
09 15.09 ЮЗ 2 10 км 9/9 600 м
[Sc]
+9.9 +4.8 71 +9 +9 по сезону 1014.5 996.9
12 15.09 ЮЗ 3 10 км 9/9 1000 м
[Sc]
+11.6 +3.8 59 +10 +11 прохладно 1011.9 994.4
15 15.09 Ю 2 10 км слаб. ливневой дождь 10/5 600 м
[Cb cap Ac trans]
+10.1 +5.5 73 +9 +9 по сезону 1007.5 990.0 0.5
18 15.09 ЮЗ 3 10 км слаб. ливневой дождь 10/10 600 м
[Cb cap]
+8.6 +6.9 89 +6 +6 прохладно 1003.3 985.8 +11.8 4
21 15.09 ЮЗ 3 10 км слаб. дождь 10/0
[As op]
+8.3 +6.6 89 +6 +6 по сезону 999.0 981.5
00 16.09 ЮЗ 2 10 км {ливн. осадки, дождь} 9/9 300 м
[Sc]
+9.9 +7.7 86 +8 +8 по сезону 996.9 979.6
03 16.09 ЮЗ 2 10 км 9/6 300 м
[St Ac trans]
+10.1 +7.7 85 +9 +9 по сезону 995.8 978.5 +8.2 5
06 16.09 ЮЗ 3 4000 м слаб. ливневой дождь 10/8 200 м
[Cb cap Ac und]
+10.3 +7.6 83 +8 +8 по сезону 994.9 977.7 +8.2 2
09 16.09 ЮЗ 2 10 км {ливн. осадки} 8/6 600 м
[Sc Ac trans]
+13.4 +7.7 68 +13 +15 тепло 994.2 977.1
12 16.09 СЗ 2 4000 м слаб. ливневой дождь 8/8 1000 м
[Cb cap Ac trans]
+12.1 +8.5 79 +11 +12 по сезону 994.4 977.2
15 16.09 ЮЗ 3 10 км {ливн. осадки} 4/4 1000 м
[Sc]
+12.4 +6.1 65 +11 +11 по сезону 994.4 977.3 4
18 16.09 ЮЗ 2 10 км {ливн. осадки} 8/8 600 м
[Cb cap]
+10.7 +7.4 80 +9 +9 по сезону 994.2 977.0 +13.9 4
21 16.09 З 2 10 км 9/9 300 м
[Sc]
+9.5 +6.1 79 +8 +8 по сезону 994.6 977.3
00 17.09 ЮЗ 2 10 км 9/9 300 м
[Sc]
+9.4 +6.6 83 +8 +8 по сезону 994.0 976.8
03 17.09 З 1 10 км 10/10 300 м
[St]
+8.8 +6.5 85 +8 +8 по сезону 994.3 977.0 +8.8 0.9
06 17.09 З 1 2000 м дождь {морось} 10/10 100 м
[Frnb Ns]
+8.7 +7.0 89 +8 +8 по сезону 994.6 977.3 +8.6 0.5
09 17.09 З 1 4000 м слаб. ливневой дождь 10/10 200 м
[Cb cap]
+8.0 +6.3 89 +7 +7 прохладно 995.5 978.1
12 17.09 З 1 10 км {ливн. осадки} 8/8 600 м
[Cb calv]
+11.9 +6.6 70 +12 +13 по сезону 995.9 978.7
15 17.09 З 1 10 км слаб. ливневой дождь 9/8 600 м
[Cb cap Ac trans]
+9.7 +6.3 79 +9 +9 по сезону 996.6 979.3 5
18 17.09 З 1 10 км {ливн. осадки} 3/0
[Ac trans]
+7.2 +5.6 90 +6 +6 прохладно 997.6 980.1 +11.9 5
21 17.09 ЮЗ 1 10 км 6/0
[Ac trans]
+6.3 +5.0 91 +5 +5 прохладно 997.7 980.2
00 18.09 штиль 0 10 км 3/0
[Ac trans]
+4.5 +3.4 93 +3 +3 прохладно 997.6 980.0
03 18.09 штиль 0 10 км туман поземный 8/3 1000 м
[Sc Ac trans]
+3.2 +2.3 94 +2 +2 прохладно 997.8 980.1 +3.1 0.0
06 18.09 штиль 0 500 м туман ?/? +5.1 +4.2 94 +4 +4 прохладно 998.0 980.4 +3.1
09 18.09 З 1 10 км {туман} 10/10 300 м
[St]
+8.4 +6.3 87 +8 +8 по сезону 998.4 981.0
12 18.09 СЗ 1 1000 м {туман} 8/5 600 м
[Cu Sc Ci fib]
+11.6 +5.3 65 +12 +14 по сезону 998.1 980.9
15 18.09 СЗ 1 10 км 8/3 1000 м
[Sc Ac trans Ci fib]
+9.3 +4.5 72 +9 +9 по сезону 999.0 981.7
18 18.09 СЗ 1 10 км 4/0
[Ac trans]
+6.7 +4.5 86 +6 +6 прохладно 1000.5 983.0 +12.6

 

Местоположение метеостанции Тверь (Тверская область, Россия): широта 56.88 долгота 35.87 высота над уровнем моря 146 м.

В архиве по умолчанию представлена погода в Твери за последнюю неделю. Архивные данные за месяц целиком и за предыдущие месяцы, начиная с января 2011 года, Вы можете получить, выбрав интересующий диапазон дат из раскрывающегося списка и нажав кнопку "Ввод!".


*Определитесь, кто Вы:
робот инопланетянин человек

Внимание! Время в таблицах - всемирное. Для получения местного времени необходимо прибавить поправку, которая равна 3 ч.

Смотрите также архив погоды в соседних городах и на ближайших метеорологических станциях:

Погода в Тверской (Тверская область, Россия) (8 км)
Погода в Конаково (Тверская область, Россия) (53 км)
Погода в Торжке (Тверская область, Россия) (55 км)
Погода в Старице (Тверская область, Россия) (73 км)
Погода в Клину (Московская область, Россия) (80 км)
Погода в Волоколамске (Московская область, Россия) (96 км)
Погода в Шаховской (Московская область, Россия) (96 км)
Погода в Солнечногорске (Московская область, Россия) (98 км)
Погода в Максатихе (Тверская область, Россия) (102 км)
Погода в Талдоме (Московская область, Россия) (104 км)

Пояснения к столбцам:

Ветер - указаны скорость ветра в м/с - средняя за 10 мин, порывы в срок и между сроками (в фигурных скобках) и направление, откуда дует ветер: С - северный, СВ - северо-восточный, В - восточный, ЮВ - юго-восточный, Ю - южный, ЮЗ - юго-западный, З - западный, СЗ - северо-западный.
Видимость - горизонтальная дальность видимости в метрах или километрах. При видимости от 1 до 10 км при отсутствии осадков обычно наблюдается дымка, при ухудшении видимости до 1 км и менее - туман. В сухую погоду видимость может ухудшаться дымом, пылью или мглою.
Явления - указаны атмосферные явления, наблюдавшиеся в срок или в последний час перед сроком; фигурными скобками обозначены явления, наблюдавшиеся между сроками (за 1-3 часа до срока); квадратными скобками обозначены град или гололедные отложения с указанием их диаметра в мм.
Облачность - указаны через наклонную черту общая и нижняя облачность в баллах и высота нижней границы облаков в метрах; квадратными скобками обозначены формы облаков: Ci - перистые, Cs - перисто-слоистые, Cc - перисто-кучевые, Ac - высококучевые, As - высокослоистые, Sc - слоисто-кучевые, Ns - слоисто-дождевые, Cu - кучевые, Cb - кучево-дождевые. Подробнее классификацию облаков см. в Атласе облаков (PDF).
T - Температура воздуха - температура, измеренная на высоте 2 м над землей.
Td - Температура точки росы - температура, при понижении до которой содержащийся в воздухе водяной пар достигнет насыщения.
f - Относительная влажность воздуха - влажноcть воздуха, измеренная на высоте 2 м над землей.
Te - Эффективная температура - температура, которую ощущает одетый по сезону человек в тени. Характеристика душности погоды. При расчете учитывается влияние влажности воздуха и скорости ветра на теплоощущения человека.
Tes - Эффективная температура на солнце - температура, которую ощущает человек, с поправкой на солнечный нагрев. Характеристика знойности погоды. Зависит от высоты солнца над горизонтом, облачности и скорости ветра. Ночью, в пасмурную погоду, а также при ветре 12 м/с и более поправка равна нулю.
P - Атмосферное давление - приведенное к уровню моря атмосферное давление.
Po - Атмосферное давление - измеренное на уровне метеостанции атмосферное давление.
Tmin - Минимальная температура - минимум температуры воздуха на высоте 2 м над землей.
Tmax - Максимальная температура - максимум температуры воздуха на высоте 2 м над землей.
R - Количество осадков - Количество выпавших осадков за период времени, мм. При наведении курсора мыши на число - период времени, за который выпало указанное количество осадков.
R24 - Количество осадков - Количество выпавших осадков за 24 часа, мм.
S - Снежный покров - Высота снежного покрова, см. При наведении курсора мыши на число - состояние снежного покрова и степень покрытия местности в баллах.